Theta_e
341 349 350 347 349 352 354 353 356 357 360 366 366 364 363 362 361 357 354 353 352 348 346 345 350 350 347 344 341 341 340 337 336
338 345 349 348 347 348 351 351 355 357 360 364 365 362 365 364 362 360 354 352 352 352 346 344 343 348 346 344 339 341 339 335 337
338 341 348 349 348 347 348 350 353 356 359 363 362 362 364 363 363 363 360 359 356 353 348 345 344 348 346 343 338 341 338 335 335
338 340 346 349 348 347 347 348 350 354 357 359 362 361 361 361 361 361 362 360 358 357 351 351 346 348 345 340 339 338 337 337 336
337 339 344 348 349 348 348 349 348 350 352 354 359 360 361 362 361 361 361 362 361 358 354 353 349 347 345 339 339 338 338 338 336
339 339 342 347 349 350 351 349 349 348 351 350 353 357 360 361 361 362 361 362 361 360 359 355 351 347 346 340 338 338 338 338 338
339 340 346 346 350 353 355 352 352 350 349 348 350 354 355 359 361 361 361 361 361 361 359 357 351 346 345 340 339 338 339 338 338
336 337 348 350 352 360 362 358 356 354 351 351 351 354 355 358 362 361 360 359 362 362 360 357 351 345 342 341 338 338 339 337 337
336 336 339 351 353 355 363 362 361 359 356 356 354 358 358 360 364 363 362 361 362 361 358 355 349 343 339 336 335 335 336 337 335
337 338 339 349 353 356 360 357 360 361 360 357 358 360 362 362 366 365 365 363 361 359 355 352 345 340 335 334 336 336 335 332 335
339 341 341 345 350 355 358 356 357 358 359 362 363 364 363 364 365 366 365 363 359 355 352 350 345 339 335 337 338 337 335 333 334
337 338 339 345 350 353 359 357 359 361 360 361 362 362 363 363 363 364 362 360 357 353 351 350 344 339 337 340 341 340 337 336 336
342 342 339 349 350 353 357 358 357 359 358 359 360 360 360 361 361 360 359 357 355 352 351 348 345 341 341 343 343 341 338 338 338
343 343 349 351 352 358 358 356 355 358 356 356 355 356 357 359 358 358 356 354 353 352 350 347 344 342 343 343 343 342 340 339 337
345 347 351 350 355 355 353 353 355 357 357 355 356 356 357 358 357 355 354 352 352 351 347 346 346 344 345 344 343 341 340 337 337
352 351 352 350 350 353 350 353 354 358 359 357 357 357 358 356 353 352 352 352 351 347 346 344 344 343 344 344 342 340 338 337 334
348 347 351 348 350 355 356 354 354 360 359 358 358 356 353 352 351 350 348 348 346 343 343 343 344 344 344 343 341 338 334 330 329
348 348 349 348 350 353 354 354 356 354 355 356 354 354 353 350 348 347 345 341 341 342 338 340 341 341 341 338 334 333 332 330 329
347 348 347 350 349 352 353 354 354 353 353 353 352 351 350 348 346 345 343 339 332 333 333 333 333 333 334 332 332 333 333 330 327
341 346 346 347 348 350 352 353 353 351 351 352 351 347 346 344 344 344 344 341 340 337 329 328 328 328 330 330 329 330 329 328 326
Wind_Speed
15 23 22 24 26 26 30 33 32 31 31 30 30 29 28 26 25 24 22 21 16 17 13 12 16 16 14 12 10 9 7 8 7
12 19 22 26 26 30 30 33 35 35 31 32 31 31 28 28 27 27 25 23 24 17 17 15 16 16 16 14 12 10 9 9 10
14 15 20 23 24 28 32 35 35 35 33 32 31 30 29 29 29 28 25 22 21 23 20 21 21 20 19 17 18 16 13 12 11
17 15 18 21 23 31 35 35 35 36 35 33 32 32 30 29 30 29 29 27 26 24 22 22 19 23 23 22 20 20 18 14 11
16 14 18 19 22 26 32 34 36 37 36 37 35 32 31 31 30 31 31 30 28 28 27 25 26 27 28 26 26 22 18 17 16
20 7 11 17 18 22 23 33 34 37 37 38 36 33 33 32 33 32 31 31 30 32 30 29 29 30 30 28 28 25 24 20 18
12 6 5 12 17 19 21 30 33 34 36 37 35 34 34 33 34 33 32 31 33 31 32 32 34 33 30 29 28 26 23 21 19
18 16 13 13 17 16 17 23 31 33 32 33 34 32 32 32 31 30 30 31 33 31 31 34 34 34 30 28 25 21 22 19 18
18 18 13 14 16 17 18 21 25 31 32 31 33 32 33 31 30 30 30 30 28 27 29 29 29 27 27 27 26 22 22 20 18
21 22 20 14 16 19 18 27 26 27 30 29 29 28 27 25 28 30 28 26 26 28 27 29 31 31 26 22 21 20 23 22 19
21 22 23 14 15 18 24 28 29 28 29 29 27 25 23 24 24 24 23 24 27 24 27 30 28 26 23 18 19 20 20 20 21
21 20 17 12 19 25 25 28 28 26 27 26 24 23 22 23 24 24 24 25 25 24 25 25 26 25 23 21 20 17 22 23 21
14 15 13 13 22 27 26 25 30 28 28 27 25 25 24 23 23 23 23 21 20 20 20 19 19 22 21 18 16 18 20 23 26
14 16 12 18 21 20 24 25 28 24 25 25 25 23 22 22 21 21 19 17 16 15 15 14 17 19 18 16 15 17 21 22 23
12 14 17 23 18 20 23 24 26 22 20 22 23 23 22 20 19 17 16 18 14 14 14 13 13 14 14 13 13 13 15 17 22
11 13 15 22 21 22 22 22 22 19 18 20 20 20 20 18 17 13 15 15 14 11 10 11 13 14 15 10 11 9 14 12 11
17 17 17 24 22 19 17 17 17 17 16 18 18 17 18 18 17 14 14 13 12 13 14 14 13 8 5 5 6 9 5 9 12
14 14 19 21 18 18 18 17 16 14 14 15 16 17 17 16 17 15 14 10 8 5 5 6 6 6 7 8 8 10 9 3 10
12 13 19 18 18 18 16 16 15 14 13 15 17 17 17 16 16 15 16 13 10 9 6 5 4 6 5 5 7 13 17 15 9
14 15 17 17 16 17 16 15 15 13 14 14 16 14 15 14 15 19 19 14 15 13 6 5 4 6 8 6 9 11 13 14 11
Wind_Direction
198 186 201 203 201 201 195 199 198 198 194 195 198 202 202 201 205 212 213 215 221 207 218 203 171 186 202 211 207 208 206 208 221
225 186 201 201 200 200 197 197 197 197 195 194 198 202 198 199 201 212 213 217 209 219 209 205 192 195 197 198 204 210 215 213 213
221 214 201 203 199 197 198 199 197 197 196 194 197 201 198 200 204 208 217 212 213 211 206 212 186 193 199 197 194 190 209 221 218
218 205 199 206 197 198 195 197 197 197 197 197 197 200 199 200 204 206 208 215 209 209 207 200 204 192 197 195 194 193 186 230 244
276 202 193 204 203 196 195 197 197 196 198 200 202 200 199 199 203 205 207 210 211 208 204 204 202 200 203 195 193 189 185 200 225
239 231 190 189 205 196 198 196 197 198 197 201 201 201 201 203 205 205 207 205 208 208 206 202 205 204 206 195 198 191 192 192 220
241 211 206 219 203 205 195 194 194 198 197 200 200 198 204 203 206 207 205 207 206 209 205 204 203 203 204 202 203 198 195 193 210
258 230 186 216 216 202 193 191 191 196 200 197 198 195 200 204 203 206 207 209 209 206 207 209 206 201 199 200 206 211 204 202 206
248 262 214 212 214 209 188 194 194 191 197 197 200 193 201 201 196 199 206 209 207 206 212 217 213 206 199 201 214 229 218 202 213
245 253 252 204 212 209 192 195 193 193 194 201 195 204 200 199 191 195 200 202 206 207 210 216 212 206 208 222 229 242 220 216 213
233 239 252 205 208 201 190 191 185 189 189 196 195 195 198 193 196 194 198 202 200 200 212 214 216 211 211 231 242 237 223 220 221
238 236 231 197 202 195 183 186 174 175 180 187 185 186 193 196 195 196 201 208 210 211 211 211 214 220 213 219 232 236 224 221 220
240 250 240 181 191 180 175 180 173 173 175 179 180 182 186 189 192 196 201 206 208 210 217 217 219 220 219 224 237 238 224 226 221
221 228 180 165 173 166 174 174 170 172 169 172 173 173 177 181 187 192 195 198 202 203 209 208 212 219 223 230 236 227 224 235 221
209 185 163 166 162 159 160 159 157 153 162 159 160 164 170 173 179 183 179 180 187 188 193 200 209 217 231 245 238 225 237 242 236
154 151 147 144 147 139 142 150 148 151 143 148 152 159 161 161 157 164 154 169 161 165 185 198 215 221 234 248 245 233 238 231 237
138 132 123 127 134 122 120 129 137 134 145 149 147 149 150 152 153 148 143 150 159 172 185 208 227 228 234 234 179 173 166 219 227
107 112 118 123 124 117 118 120 123 134 143 150 146 150 149 146 147 146 140 134 159 192 138 207 240 205 191 196 188 203 206 197 202
102 108 106 105 107 108 111 116 121 126 140 151 148 150 152 152 149 151 155 153 130 138 118 151 142 134 151 190 223 197 202 201 186
52 81 90 99 109 114 117 121 123 137 141 145 155 158 154 163 172 169 175 176 172 175 141 155 163 197 209 175 173 175 190 194 204